EW4431 Weather Reports


Display with metric or nautical units.
time (UTC)temp
F
wind
direction
speed
MPH
gust
MPH
rain 1hr
in
rain 24hr
in
rain mn
in
humidity
%
barometer
mb
20260510061544 81 279 0.0 1.0 0.00 0.00 0.00 16 1004.7
20260510060015 81 279 0.0 1.0 0.00 0.00 0.00 16 1004.7
20260510054513 80 279 0.0 2.0 0.00 0.00 0.00 17 1004.5
20260510053007 82 259 0.0 0.0 0.00 0.00 0.00 17 1004.5
20260510051506 82 259 0.0 0.0 0.00 0.00 0.00 16 1004.5
20260510050003 83 259 0.0 0.0 0.00 0.00 0.00 17 1004.4
20260510044638 85 259 0.0 0.0 0.00 0.00 0.00 15 1004.2
20260510043053 87 259 0.0 0.0 0.00 0.00 0.00 14 1004.0
20260510041552 88 259 0.0 1.0 0.00 0.00 0.00 13 1003.9
20260510040049 88 255 0.0 1.0 0.00 0.00 0.00 13 1003.7
20260510034547 88 256 0.0 0.0 0.00 0.00 0.00 13 1003.6
20260510033041 90 256 0.0 1.0 0.00 0.00 0.00 12 1003.4
20260510031540 91 256 0.0 1.0 0.00 0.00 0.00 11 1003.2
20260510030038 93 232 0.0 2.0 0.00 0.00 0.00 11 1003.0
20260510024536 94 269 0.0 4.0 0.00 0.00 0.00 10 1002.7
20260510023027 95 278 1.0 6.0 0.00 0.00 0.00 9 1002.6
20260510021529 96 259 1.0 6.0 0.00 0.00 0.00 10 1002.6
20260510020028 97 245 0.0 5.0 0.00 0.00 0.00 10 1002.5
20260510014527 99 271 1.0 7.0 0.00 0.00 0.00 10 1002.4
20260510013056 99 279 2.0 6.0 0.00 0.00 0.00 9 1002.4
20260510011558 100 261 1.0 7.0 0.00 0.00 0.00 10 1002.5
20260510010024 101 275 1.0 4.0 0.00 0.00 0.00 10 1002.4
20260510004521 101 267 3.0 8.0 0.00 0.00 0.00 9 1002.5
20260510003023 101 279 2.0 8.0 0.00 0.00 0.00 10 1002.4
20260510001515 102 302 1.0 7.0 0.00 0.00 0.00 11 1002.5
20260510000016 102 307 3.0 7.0 0.00 0.00 0.00 10 1002.6
20260509234515 102 294 7.0 13.0 0.00 0.00 0.00 9 1002.7
20260509233020 102 275 3.0 9.0 0.00 0.00 0.00 9 1002.7
20260509231540 102 266 2.0 8.0 0.00 0.00 0.00 9 1002.9
20260509230038 102 263 5.0 12.0 0.00 0.00 0.00 9 1003.0
20260509224538 102 281 3.0 8.0 0.00 0.00 0.00 9 1003.3
20260509223031 102 274 2.0 9.0 0.00 0.00 0.00 11 1003.5
20260509221531 102 276 2.0 8.0 0.00 0.00 0.00 9 1003.6
20260509220028 102 283 1.0 7.0 0.00 0.00 0.00 9 1003.9
20260509214520 101 278 3.0 9.0 0.00 0.00 0.00 9 1004.2
20260509213019 102 269 2.0 7.0 0.00 0.00 0.00 11 1004.4
20260509211514 101 288 2.0 8.0 0.00 0.00 0.00 11 1004.7
20260509210012 100 287 3.0 7.0 0.00 0.00 0.00 11 1005.0
20260509204505 99 284 3.0 8.0 0.00 0.00 0.00 11 1005.2
20260509203004 99 273 2.0 7.0 0.00 0.00 0.00 11 1005.5
20260509201627 98 276 1.0 5.0 0.00 0.00 0.00 12 1005.8
20260509200108 98 336 1.0 6.0 0.00 0.00 0.00 14 1006.0
20260509194554 98 284 0.0 5.0 0.00 0.00 0.00 13 1006.1
20260509193059 97 251 1.0 5.0 0.00 0.00 0.00 13 1006.4
20260509191556 97 277 1.0 5.0 0.00 0.00 0.00 13 1006.6
20260509190046 96 283 0.0 2.0 0.00 0.00 0.00 14 1006.8
20260509184538 96 278 1.0 6.0 0.00 0.00 0.00 13 1007.0
20260509183036 96 131 0.0 3.0 0.00 0.00 0.00 16 1007.2
20260509181536 94 209 1.0 5.0 0.00 0.00 0.00 16 1007.5
20260509180030 94 273 0.0 3.0 0.00 0.00 0.00 15 1007.6
20260509174526 94 105 0.0 3.0 0.00 0.00 0.00 15 1007.8
20260509173025 94 113 1.0 6.0 0.00 0.00 0.00 17 1007.9
20260509171524 92 285 0.0 2.0 0.00 0.00 0.00 17 1007.9
20260509170024 91 198 1.0 3.0 0.00 0.00 0.00 17 1008.0
20260509164521 89 278 0.0 6.0 0.00 0.00 0.00 20 1007.9
20260509163020 89 112 2.0 5.0 0.00 0.00 0.00 18 1008.0
20260509161521 88 98 0.0 5.0 0.00 0.00 0.00 19 1008.0
20260509160020 87 132 0.0 4.0 0.00 0.00 0.00 19 1008.0
20260509154550 86 203 2.0 7.0 0.00 0.00 0.00 19 1008.0
20260509153049 85 148 2.0 4.0 0.00 0.00 0.00 21 1008.0
20260509151518 83 84 0.0 4.0 0.00 0.00 0.00 22 1008.0
20260509150018 83 123 2.0 5.0 0.00 0.00 0.00 22 1007.9
20260509144547 81 103 1.0 4.0 0.00 0.00 0.00 24 1007.9
20260509143047 80 119 0.0 2.0 0.00 0.00 0.00 25 1007.8
20260509141517 79 110 0.0 1.0 0.00 0.00 0.00 25 1007.8
20260509140015 77 117 0.0 1.0 0.00 0.00 0.00 27 1007.8
20260509134545 76 114 0.0 1.0 0.00 0.00 0.00 29 1007.6
20260509133045 73 114 0.0 1.0 0.00 0.00 0.00 29 1007.4
20260509131514 72 108 0.0 0.0 0.00 0.00 0.00 29 1007.1
20260509130011 0 0.0 0.0 0.00 0.00 0.00 1006.9
20260509124542 0 0.0 0.0 0.00 0.00 0.00 1006.8
20260509123033 0 0.0 0.0 0.00 0.00 0.00 1006.6
20260509121528 0 0.0 0.0 0.00 0.00 0.00 1006.5
20260509120029 0 0.0 0.0 0.00 0.00 0.00 1006.3
20260509114516 0 0.0 0.0 0.00 0.00 0.00 1006.2
20260509113013 0 0.0 0.0 0.00 0.00 0.00 1006.1
20260509111610 68 128 0.0 0.0 0.00 0.00 0.00 36 1006.1
20260509110036 69 124 0.0 0.0 0.00 0.00 0.00 36 1006.2
20260509104535 70 124 0.0 0.0 0.00 0.00 0.00 36 1006.0
20260509103030 69 119 0.0 0.0 0.00 0.00 0.00 37 1005.9
20260509101534 70 121 0.0 0.0 0.00 0.00 0.00 37 1005.9
20260509100029 70 131 0.0 1.0 0.00 0.00 0.00 37 1005.8
20260509094528 70 131 0.0 0.0 0.00 0.00 0.00 38 1005.7
20260509093027 70 120 0.0 1.0 0.00 0.00 0.00 39 1005.8
20260509091526 70 249 0.0 0.0 0.00 0.00 0.00 39 1005.9
20260509090025 69 249 0.0 0.0 0.00 0.00 0.00 39 1005.8
20260509084532 70 249 0.0 0.0 0.00 0.00 0.00 38 1005.8
20260509083027 71 249 0.0 0.0 0.00 0.00 0.00 36 1005.8
20260509081516 72 249 0.0 0.0 0.00 0.00 0.00 34 1005.7
20260509080011 73 249 0.0 0.0 0.00 0.00 0.00 32 1005.7
20260509074510 75 249 0.0 0.0 0.00 0.00 0.00 30 1005.6
20260509073002 76 249 0.0 0.0 0.00 0.00 0.00 29 1005.7
20260509071600 76 249 0.0 0.0 0.00 0.00 0.00 28 1005.6
20260509070104 77 249 0.0 0.0 0.00 0.00 0.00 27 1005.6
20260509064555 78 249 0.0 0.0 0.00 0.00 0.00 25 1005.5
20260509063046 80 249 0.0 0.0 0.00 0.00 0.00 21 1005.5